Overview Statistics Trail Chart Weather Telemetry Raw packets
 

This is the latest recevied weather packets stored in our database for station/object 9W2CHF-3. If no packets are shown the sender has not sent any weather packets the latest 10 day(s).

<< 7 8 9 10 11 12 13 >>
Time Temp. Humidity Pressure Rain* Wind** Luminosity Snow
1777516010 38.33° C 56% 1011.5 hPa - - - -
1777514810 37.78° C 56% 1011.5 hPa - - - -
1777513610 37.78° C 57% 1011.4 hPa - - - -
1777512409 37.22° C 59% 1011.5 hPa - - - -
1777511209 35.56° C 66% 1011.4 hPa - - - -
1777510009 35° C 70% 1011.3 hPa - - - -
1777508809 35° C 70% 1011 hPa - - - -
1777507609 33.89° C 73% 1010.8 hPa - - - -
1777506409 31.11° C 87% 1010.5 hPa - - - -
1777505209 29.44° C 97% 1010.7 hPa - - - -
1777504008 28.33° C 100% 1010.7 hPa - - - -
1777502808 28.89° C 100% 1010.4 hPa - - - -
1777501608 28.33° C 100% 1010.2 hPa - - - -
1777500408 28.89° C 100% 1010.1 hPa - - - -
1777499208 28.33° C 100% 1009.9 hPa - - - -
1777498008 28.89° C 98% 1009.9 hPa - - - -
1777496808 28.33° C 100% 1009.6 hPa - - - -
1777495608 28.89° C 99% 1009.4 hPa - - - -
1777494407 28.89° C 99% 1009.6 hPa - - - -
1777493207 28.33° C 100% 1009.7 hPa - - - -
1777492007 28.89° C 99% 1009.7 hPa - - - -
1777490806 29.44° C 96% 1009.9 hPa - - - -
1777489606 29.44° C 96% 1010 hPa - - - -
1777488406 29.44° C 98% 1010.4 hPa - - - -
1777487209 29.44° C 97% 1010.6 hPa - - - -

* Rain since midnight (hover to see other rain measurements)
** Current wind speed in m/s (hover to see current wind gust speed)